Le nostre stazioni meteo in Italia

Pubblicità
Il mio iltempo24.it
Panocchia, Italia (16131): Temperatura: 14.01.2019 07:00:00 - 20.01.2019 07:00:00 (CET)Panocchia, Italia (16131): velocità del vento: 14.01.2019 07:00:00 - 20.01.2019 07:00:00 (CET)Panocchia, Italia (16131): direzione del vento: 14.01.2019 07:00:00 - 20.01.2019 07:00:00 (CET)Panocchia, Italia (16131): reduced air pressure: 14.01.2019 07:00:00 - 20.01.2019 07:00:00 (CET)Panocchia, Italia (16131): precipitazioni: 14.01.2019 07:00:00 - 20.01.2019 07:00:00 (CET)
Data & Tempo tt [°C] ff [km/h] ff [kn] dd ppp [hPa] rr [mm]
20.01.2019 07:00:00 - - - - - -
20.01.2019 06:00:00 1,7 3 2 SSE 1014,7 -
20.01.2019 05:00:00 2,6 - - - 1015,0 0,0
20.01.2019 04:00:00 2,0 4 2 NO 1015,3 0,0
20.01.2019 03:00:00 2,4 2 1 O 1015,5 0,0
20.01.2019 02:00:00 2,5 - - - 1015,6 0,0
20.01.2019 01:00:00 2,5 3 2 OSO 1015,9 0,0
20.01.2019 00:00:00 - - - - - -
19.01.2019 23:00:00 2,4 - - - 1016,5 -
19.01.2019 22:00:00 2,3 - - - 1016,4 0,0
19.01.2019 21:00:00 2,6 - - - 1016,2 0,0
19.01.2019 20:00:00 2,4 4 2 NO 1016,2 0,0
19.01.2019 19:00:00 2,5 0 0 ENE 1016,1 0,0
19.01.2019 18:00:00 3,0 - - - 1016,0 0,0
19.01.2019 17:00:00 3,4 - - - 1016,0 0,0
19.01.2019 16:00:00 3,8 6 3 E 1016,1 0,0
19.01.2019 15:00:00 3,9 - - - 1016,3 0,0
19.01.2019 14:00:00 3,8 6 3 ESE 1016,6 0,0
19.01.2019 13:00:00 3,7 6 3 E 1017,2 0,0
19.01.2019 12:00:00 3,5 6 3 E 1017,8 0,0
19.01.2019 11:00:00 2,8 4 2 E 1018,4 0,0
19.01.2019 10:00:00 2,3 3 2 OSO 1018,0 0,0
19.01.2019 09:00:00 1,9 3 1 E 1017,8 0,0
19.01.2019 08:00:00 1,9 - - - 1017,3 0,2
19.01.2019 07:00:00 2,0 5 3 E 1017,3 0,0
19.01.2019 06:00:00 2,2 6 3 E 1017,2 0,2
19.01.2019 05:00:00 2,3 5 3 ENE 1017,4 0,0
19.01.2019 04:00:00 2,4 4 2 N 1017,6 0,2
19.01.2019 03:00:00 2,5 5 3 NE 1017,7 0,2
19.01.2019 02:00:00 3,1 10 5 E 1017,2 0,2
19.01.2019 01:00:00 3,6 10 6 E 1017,1 0,2
19.01.2019 00:00:00 3,8 8 5 E 1017,2 0,0
18.01.2019 23:00:00 - - - - - -
18.01.2019 22:00:00 4,7 7 4 E 1016,4 0,0
18.01.2019 21:00:00 4,9 3 2 E 1016,1 0,0
18.01.2019 20:00:00 4,9 4 2 ESE 1016,0 0,0
18.01.2019 19:00:00 4,9 4 2 E 1015,6 0,0
18.01.2019 18:00:00 4,5 4 2 SE 1015,2 0,0
18.01.2019 17:00:00 4,7 3 2 OSO 1014,6 0,0
18.01.2019 16:00:00 5,1 6 3 S 1014,5 0,0
18.01.2019 15:00:00 4,9 2 1 ENE 1013,7 0,0
18.01.2019 14:00:00 5,2 9 5 N 1013,1 0,0
18.01.2019 13:00:00 6,4 6 4 N 1012,6 0,0
18.01.2019 12:00:00 5,4 4 2 ESE 1012,6 0,0
18.01.2019 11:00:00 4,3 3 2 N 1012,8 0,0
18.01.2019 10:00:00 4,3 6 3 N 1012,1 0,0
18.01.2019 09:00:00 4,6 1 1 E 1011,3 0,0
18.01.2019 08:00:00 3,7 3 2 NNE 1010,6 0,0
18.01.2019 07:00:00 4,3 - - - 1010,1 0,0
18.01.2019 06:00:00 4,8 4 2 NE 1010,1 0,0
18.01.2019 05:00:00 4,7 8 5 SSO 1009,8 0,2
18.01.2019 04:00:00 4,7 5 3 O 1010,3 0,2
18.01.2019 03:00:00 4,6 4 2 NNO 1010,9 0,8
18.01.2019 02:00:00 4,4 4 2 SSO 1010,4 0,6
18.01.2019 01:00:00 4,4 4 2 NNO 1010,9 0,4
18.01.2019 00:00:00 4,4 6 3 NO 1011,0 0,2
17.01.2019 23:00:00 4,3 6 3 NO 1010,9 0,0
17.01.2019 22:00:00 4,3 3 2 NO 1011,2 0,2
17.01.2019 21:00:00 4,4 - - - 1011,3 0,4
17.01.2019 20:00:00 4,5 6 3 NNO 1011,6 0,0
17.01.2019 19:00:00 4,5 3 2 NNO 1011,8 0,2
17.01.2019 18:00:00 4,8 6 3 N 1011,9 0,0
17.01.2019 17:00:00 5,2 - - - 1011,9 0,0
17.01.2019 16:00:00 5,6 2 1 E 1012,3 0,0
17.01.2019 15:00:00 6,1 7 4 NNO 1012,9 0,0
17.01.2019 14:00:00 6,4 7 4 NNO 1013,2 0,0
17.01.2019 13:00:00 7,0 8 4 NNO 1013,8 0,0
17.01.2019 12:00:00 6,5 7 4 NNO 1014,5 0,0
17.01.2019 11:00:00 6,8 8 4 NNO 1015,3 0,0
17.01.2019 10:00:00 7,8 - - - 1014,9 -
17.01.2019 09:00:00 6,5 9 5 O 1015,0 0,0
17.01.2019 08:00:00 6,2 4 2 ONO 1015,0 0,0
17.01.2019 07:00:00 5,5 10 5 O 1015,1 0,0
17.01.2019 06:00:00 5,9 - - - 1015,5 -
17.01.2019 05:00:00 5,4 8 5 O 1016,1 0,0
17.01.2019 04:00:00 4,5 9 5 O 1016,8 0,0
17.01.2019 03:00:00 2,8 2 1 OSO 1017,5 0,0
17.01.2019 02:00:00 3,6 12 6 O 1017,4 0,0
17.01.2019 01:00:00 3,9 15 8 OSO 1017,8 0,0
17.01.2019 00:00:00 4,3 - - - 1018,5 0,0
16.01.2019 23:00:00 3,3 11 6 OSO 1019,0 0,0
16.01.2019 22:00:00 3,3 11 6 O 1019,3 0,0
16.01.2019 21:00:00 3,9 11 6 O 1018,9 0,0
16.01.2019 20:00:00 3,2 9 5 ONO 1019,1 0,0
16.01.2019 19:00:00 5,9 - - - 1018,8 -
16.01.2019 18:00:00 7,7 - - - 1018,4 0,0
16.01.2019 17:00:00 8,8 7 4 E 1018,3 0,0
16.01.2019 16:00:00 11,9 10 5 ESE 1018,0 0,0
16.01.2019 15:00:00 13,3 5 3 ENE 1017,9 0,0
16.01.2019 14:00:00 12,7 - - - 1018,1 -
16.01.2019 13:00:00 11,5 6 3 ESE 1019,0 0,0
16.01.2019 12:00:00 10,4 4 2 E 1019,9 0,0
16.01.2019 11:00:00 9,2 3 2 N 1020,5 0,0
16.01.2019 10:00:00 8,5 6 3 N 1020,3 0,0
16.01.2019 09:00:00 4,8 10 6 O 1020,2 0,0
16.01.2019 08:00:00 0,9 - - - 1020,2 -
16.01.2019 07:00:00 1,1 7 4 O 1020,0 0,0
16.01.2019 06:00:00 0,7 12 7 O 1019,9 0,0
16.01.2019 05:00:00 1,3 13 7 O 1020,0 0,0
16.01.2019 04:00:00 1,5 11 6 O 1020,3 0,0
16.01.2019 03:00:00 2,8 - - - 1020,5 -
16.01.2019 02:00:00 1,0 12 6 ONO 1020,5 0,0
16.01.2019 01:00:00 1,4 7 4 O 1020,3 0,0
16.01.2019 00:00:00 1,6 10 5 O 1020,5 0,0
15.01.2019 23:00:00 2,0 13 7 O 1020,4 0,0
15.01.2019 22:00:00 2,4 11 6 ONO 1020,5 0,0
15.01.2019 21:00:00 1,9 - - - 1020,2 0,0
15.01.2019 20:00:00 1,0 9 5 O 1020,0 0,0
15.01.2019 19:00:00 1,8 3 1 O 1019,3 0,0
15.01.2019 18:00:00 4,4 11 6 ONO 1018,7 0,0
15.01.2019 17:00:00 6,7 4 2 O 1018,6 0,0
15.01.2019 16:00:00 11,1 4 2 NNO 1017,9 0,0
15.01.2019 15:00:00 11,6 12 6 N 1017,7 0,0
15.01.2019 14:00:00 12,7 3 2 N 1017,5 0,0
15.01.2019 13:00:00 11,3 7 4 NO 1018,1 0,0
15.01.2019 12:00:00 10,4 5 3 N 1018,7 0,0
15.01.2019 11:00:00 9,5 5 3 N 1019,0 0,0
15.01.2019 10:00:00 8,6 4 2 O 1018,3 0,0
15.01.2019 09:00:00 4,2 15 8 O 1017,9 0,0
15.01.2019 08:00:00 3,2 16 9 O 1017,0 0,0
15.01.2019 07:00:00 2,6 18 10 O 1016,4 0,0
15.01.2019 06:00:00 2,0 17 9 O 1015,9 0,0
15.01.2019 05:00:00 2,3 15 8 ONO 1015,7 0,0
15.01.2019 04:00:00 1,7 5 3 O 1015,5 0,0
15.01.2019 03:00:00 7,2 6 4 O 1015,2 0,0
15.01.2019 02:00:00 8,0 13 7 ONO 1014,5 0,0
15.01.2019 01:00:00 8,2 14 8 ONO 1014,0 0,0
15.01.2019 00:00:00 8,8 15 8 ONO 1013,2 0,0
14.01.2019 23:00:00 8,8 18 10 ONO 1012,1 0,0
14.01.2019 22:00:00 9,0 14 7 ONO 1011,6 0,0
14.01.2019 21:00:00 9,9 23 13 NO 1010,7 0,0
14.01.2019 20:00:00 10,4 21 11 NO 1009,3 0,0
14.01.2019 19:00:00 11,1 22 12 NO 1008,2 0,0
14.01.2019 18:00:00 11,0 24 13 NO 1007,6 0,0
14.01.2019 17:00:00 12,2 20 11 NO 1006,8 0,0
14.01.2019 16:00:00 13,9 27 15 NO 1005,7 0,0
14.01.2019 15:00:00 15,1 23 12 NO 1005,0 0,0
14.01.2019 14:00:00 15,1 24 13 NO 1004,6 0,0
14.01.2019 13:00:00 - - - - - -
14.01.2019 12:00:00 13,2 15 8 NO 1005,0 0,0
14.01.2019 11:00:00 11,3 - - - 1005,4 0,0
14.01.2019 10:00:00 7,2 - - - 1005,5 -
14.01.2019 09:00:00 3,7 6 4 S 1004,6 0,0
14.01.2019 08:00:00 3,4 12 6 E 1001,9 0,0
14.01.2019 07:00:00 12,4 22 12 O 998,9 0,0

tt = Temperatura
ff = velocità del vento
dd = direzione del vento
ppp = reduced air pressure
rr = precipitazioni

Stazioni seguenti

WeatherPro
AMSI
MeteoEarth